GFSSE_925_rhum_000.txt.gz
RH
76 93 90 89 84 77 76 82 85 79 68 69 71 73 73 75 73 70 70 71 74 74 69 66 61 60 63 65 65 47 51 59 48 40 43 46 54 57 58 58 70 75 81
74 99 95 91 90 84 82 82 88 85 74 66 63 63 73 71 67 66 64 66 64 59 53 50 51 54 54 54 58 54 44 40 47 38 33 39 49 60 62 58 62 73 78
61 79 86 86 89 88 84 86 89 85 79 71 67 63 61 68 67 68 65 58 62 67 62 58 56 57 66 59 58 56 50 49 48 47 41 44 48 61 64 65 67 70 76
57 68 76 76 81 82 84 90 89 82 74 66 70 72 72 65 61 61 64 71 71 68 57 53 62 91 94 90 78 70 66 64 62 59 51 50 58 58 68 64 71 69 72
48 52 51 64 66 62 66 73 71 68 64 61 62 65 76 82 83 79 74 66 65 57 53 56 70 84 73 64 65 70 71 74 73 70 66 67 75 75 74 70 62 80 74
53 46 44 40 39 40 40 40 44 50 54 52 53 57 70 79 76 67 61 57 66 72 70 86 95 90 83 80 77 75 68 67 69 71 74 74 81 74 76 79 72 68 80
52 49 45 40 38 37 37 35 37 44 48 50 50 55 61 64 62 64 63 64 74 87 84 80 74 72 83 94 93 81 75 74 80 71 73 74 72 75 86 81 74 72 64
47 49 45 43 42 44 46 45 44 44 49 55 62 65 68 71 71 72 72 75 82 82 77 74 71 70 70 75 78 73 67 68 74 64 64 67 73 73 73 74 72 74 66
56 53 48 48 46 46 43 44 46 49 50 53 61 64 63 61 61 66 68 70 69 70 70 73 75 79 86 90 88 86 90 88 84 81 74 66 70 74 75 77 74 75 71
59 60 60 59 59 54 49 50 50 48 53 57 63 64 63 63 60 60 58 54 55 57 60 63 67 73 80 84 83 82 82 81 80 79 84 82 76 76 78 77 79 77 76
68 64 66 66 68 62 59 58 55 58 58 58 63 62 66 65 62 57 58 56 53 52 53 53 55 57 65 75 76 72 70 70 72 73 76 75 77 82 93 87 78 76 80
72 70 68 70 70 70 67 67 64 65 64 66 66 65 68 70 63 61 60 56 49 49 50 49 49 45 55 57 60 61 61 63 66 66 72 79 78 71 78 89 90 90 87
68 71 64 66 72 76 77 70 70 68 69 70 71 69 71 72 74 68 62 60 61 56 59 51 58 61 54 58 56 51 48 53 66 77 78 74 72 74 76 88 90 88 87
69 63 62 50 47 53 68 77 74 70 72 72 74 74 69 67 68 54 49 56 65 65 65 58 66 72 69 61 57 51 50 50 58 66 72 80 86 79 69 75 91 93 87
65 64 49 42 45 56 64 71 71 73 76 75 76 75 69 66 57 57 58 61 70 76 75 72 60 38 35 31 34 31 31 32 33 41 42 43 48 56 68 72 75 93 92
57 56 43 43 49 58 55 58 63 67 70 72 74 74 68 62 57 65 69 70 73 78 75 56 36 30 26 31 34 34 34 35 36 34 34 31 32 34 36 44 66 78 97
51 46 42 40 39 40 40 42 46 52 54 53 55 54 52 50 45 51 62 66 68 82 73 51 43 30 33 34 33 34 34 33 34 35 34 35 36 36 44 47 44 47 66
48 40 38 35 33 33 34 35 39 46 52 50 49 45 43 42 41 42 43 42 43 64 61 46 43 31 36 34 33 32 32 33 35 34 38 33 36 40 41 42 48 73 66
40 33 33 32 30 28 29 31 40 43 38 39 41 40 41 43 43 44 41 38 38 43 45 40 31 31 36 34 33 33 32 32 34 35 30 38 34 37 46 43 47 48 48
27 29 30 27 27 25 23 24 26 28 26 28 27 28 30 34 39 45 46 43 38 38 41 42 32 33 36 36 34 33 32 30 32 34 31 24 26 39 35 53 52 58 54
26 29 26 23 23 21 22 22 23 23 24 25 25 25 26 26 28 36 45 47 44 40 33 34 34 34 38 39 40 39 33 31 36 30 29 34 30 29 47 50 43 50 49
25 24 22 21 21 21 22 23 26 26 26 26 25 26 27 27 27 29 29 32 43 41 38 39 38 37 38 39 41 54 58 45 38 36 28 35 31 48 43 33 40 34 28
22 21 22 22 23 26 28 28 28 30 31 31 31 32 30 31 34 35 33 30 33 44 38 35 39 40 43 43 46 41 77 71 70 34 38 30 39 32 38 28 29 24 28
24 24 25 29 32 35 36 36 38 40 41 34 35 36 35 34 35 38 42 40 39 51 49 38 36 42 46 49 56 54 47 42 52 47 38 39 30 34 28 33 30 26 46
30 33 38 37 37 37 35 36 36 33 32 33 32 34 29 29 29 30 36 43 43 50 56 53 50 56 56 49 36 47 38 46 47 56 59 46 36 38 45 38 37 40 24
38 36 34 34 35 36 38 38 37 41 41 38 34 34 34 35 34 36 37 43 58 64 62 55 50 45 49 58 63 58 54 48 48 56 74 62 53 46 43 45 48 40 34

GFSSE_925_rhum_006.txt.gz
RH
59 75 79 81 83 87 82 75 69 66 65 69 71 72 78 78 79 76 73 72 70 58 56 60 56 57 63 60 64 61 62 64 62 56 51 52 57 65 68 72 75 80 76
64 78 78 78 78 79 80 78 72 67 68 74 80 85 90 85 81 76 70 65 58 53 57 59 55 62 77 86 78 69 60 59 59 52 47 44 50 63 66 68 72 79 74
63 74 80 80 78 77 77 79 78 74 67 73 78 80 80 82 82 75 68 63 61 62 61 70 91 97 92 96 84 75 71 64 58 52 46 53 53 52 65 69 70 76 74
64 74 78 83 83 85 85 86 85 84 81 78 76 77 80 81 80 74 71 73 69 68 90 96 98 92 84 81 86 87 79 74 71 62 58 60 60 62 78 67 71 71 81
61 68 84 82 83 86 88 90 89 88 84 80 76 81 84 85 81 76 74 67 55 57 66 73 76 74 73 77 74 69 71 74 74 69 63 63 59 70 65 68 70 68 67
51 59 60 61 62 65 73 72 70 76 79 78 78 79 82 84 81 73 61 51 55 61 64 68 64 64 62 63 79 80 70 62 62 62 63 65 68 71 66 71 70 76 78
46 54 57 50 51 50 48 50 56 60 60 59 60 66 64 63 59 57 59 65 66 70 69 66 69 71 71 68 66 71 81 77 76 61 61 71 75 75 74 72 74 72 74
48 58 58 47 45 45 46 45 44 46 50 53 53 54 56 56 56 58 60 61 62 61 59 62 64 70 78 81 82 80 71 70 72 72 71 67 82 72 79 79 76 77 73
47 52 57 59 61 47 49 49 50 56 56 54 56 59 58 60 64 66 67 68 66 64 63 61 60 62 67 74 76 80 80 77 75 72 78 69 82 75 74 74 71 68 75
53 51 58 65 60 64 64 49 50 52 52 55 57 61 62 68 69 70 64 70 57 51 49 49 49 51 55 63 74 77 76 73 68 71 70 81 72 76 83 77 68 60 66
53 61 65 61 63 63 58 61 54 56 58 60 69 65 74 70 75 70 67 57 55 52 50 44 42 40 39 54 60 63 64 59 63 59 60 73 69 73 80 82 90 79 67
53 60 62 68 66 66 58 66 66 67 65 73 76 83 71 79 78 75 71 55 50 50 55 52 51 47 54 50 52 57 53 64 55 57 58 71 63 70 92 86 77 78 77
48 53 60 71 75 68 55 56 53 54 60 64 81 85 78 83 75 73 70 67 69 68 60 61 64 58 67 62 54 58 56 56 45 46 57 60 58 70 84 94 95 90 81
43 49 59 66 75 75 56 52 54 55 55 59 63 83 75 68 68 71 64 59 58 59 68 61 60 71 62 54 52 52 51 44 36 40 49 37 39 47 59 71 83 85 91
42 51 60 68 70 62 68 56 60 61 55 61 62 63 71 65 63 60 57 54 54 56 58 61 59 55 45 41 44 45 42 43 46 37 38 34 28 28 31 38 52 74 84
44 49 62 67 65 55 56 62 56 54 52 53 52 52 65 68 58 54 49 46 45 46 52 56 54 51 42 40 39 45 42 41 41 42 34 40 31 31 30 34 40 55 89
39 46 59 63 52 54 52 50 45 42 47 44 44 50 56 58 51 53 46 46 44 46 56 60 63 56 48 38 38 40 42 44 39 41 38 35 40 36 34 36 40 50 59
41 48 54 55 44 46 46 47 44 42 47 44 44 46 53 57 59 56 48 46 46 50 49 51 52 48 46 39 34 34 35 36 37 39 38 37 34 32 42 34 37 44 48
37 46 50 48 33 37 45 45 47 48 43 34 38 37 41 47 49 53 47 46 50 50 47 48 49 48 46 37 34 34 35 34 33 33 33 40 41 35 32 44 27 34 45
40 47 46 38 40 47 46 45 36 37 36 36 34 36 39 40 46 49 48 51 55 55 51 47 49 48 44 42 33 28 31 35 35 33 34 35 34 43 41 42 43 42 38
48 45 39 41 43 38 32 32 29 31 31 33 36 44 46 46 45 47 45 46 48 48 49 56 55 52 54 47 46 37 35 36 42 36 34 33 32 39 41 46 36 34 34
38 40 37 34 36 35 32 36 40 42 38 41 37 40 38 39 38 38 41 43 42 44 46 49 54 55 54 52 48 41 38 31 33 39 37 35 36 36 41 46 39 39 37
38 37 36 38 41 43 39 36 35 35 34 34 36 35 38 40 40 40 42 45 48 46 42 44 48 50 49 49 51 49 43 40 31 28 41 38 38 43 39 40 38 38 37
43 42 41 42 41 43 44 41 44 39 39 42 42 40 41 36 37 41 43 47 49 48 47 46 42 47 50 48 46 48 52 48 46 42 35 43 42 46 44 40 37 41 41
44 46 46 44 44 45 44 47 42 45 45 43 42 39 32 31 36 41 48 53 54 52 51 59 61 61 62 58 53 52 54 54 51 51 45 40 42 42 38 43 46 44 45
45 48 46 42 44 48 48 47 53 55 52 45 40 37 34 36 36 41 52 57 61 61 60 61 68 73 72 72 71 70 66 70 60 51 47 42 40 39 40 46 47 47 47

GFSSE_925_rhum_009.txt.gz
RH
47 76 70 72 76 77 74 71 69 70 73 75 78 79 79 77 78 76 73 69 62 57 54 56 54 55 52 61 57 58 60 63 66 59 50 47 47 64 66 68 81 84 67
51 70 72 71 72 77 77 73 72 73 78 85 90 93 92 86 80 73 66 61 57 58 64 74 72 81 81 75 68 69 64 56 60 60 47 38 42 53 64 68 79 81 72
53 65 78 82 83 82 84 81 79 76 79 79 81 82 81 82 76 71 66 63 64 64 69 80 92 86 79 86 85 77 70 66 59 57 47 49 58 73 52 68 68 71 72
53 57 80 82 84 86 86 87 85 81 73 71 72 75 79 78 73 69 69 72 67 69 92 98 91 76 71 72 73 77 75 70 67 58 58 51 53 61 54 68 71 72 73
50 60 74 82 86 89 90 89 89 88 80 77 74 78 80 81 80 78 72 56 56 72 92 90 72 66 61 58 65 74 75 74 72 66 63 57 62 72 57 63 65 62 62
41 58 66 74 76 76 80 82 86 87 85 77 71 70 70 68 64 55 51 60 72 78 72 68 65 61 59 59 60 65 77 69 63 68 59 65 61 68 61 72 70 78 77
32 41 67 52 49 49 54 57 60 60 59 59 64 70 71 65 61 60 60 59 56 56 52 54 57 59 63 68 68 68 67 75 69 61 58 70 76 72 68 64 59 71 70
35 39 43 34 36 41 44 46 49 55 61 64 63 65 65 63 62 61 60 55 50 48 46 46 48 51 55 60 67 74 76 68 73 60 68 66 75 72 74 74 69 58 52
34 39 42 47 52 41 44 48 50 55 57 60 61 59 59 58 59 60 55 54 45 40 41 41 41 39 40 47 60 67 70 70 66 60 69 72 77 72 78 78 79 75 69
34 40 44 44 43 47 67 46 49 50 54 57 59 60 61 72 69 68 68 64 50 49 47 43 38 34 31 35 44 54 58 62 64 48 50 66 68 69 79 75 68 66 70
36 42 43 44 44 44 41 49 57 56 57 63 69 70 73 62 60 59 69 61 51 52 52 56 52 47 44 51 49 49 46 54 52 43 60 67 63 67 87 83 80 78 74
39 39 47 50 48 46 38 48 49 47 50 57 60 63 55 64 64 65 64 64 64 65 62 57 56 55 56 46 44 49 48 47 44 40 52 52 55 59 84 80 77 77 77
36 36 42 59 55 48 41 41 39 40 45 48 56 63 59 60 57 56 54 52 53 53 50 53 52 51 59 55 46 45 44 44 35 34 49 48 40 53 68 74 69 72 78
32 32 42 56 53 52 44 40 41 41 44 45 51 57 56 52 52 54 49 48 44 43 49 49 50 52 54 46 41 42 41 39 29 30 41 37 24 32 43 60 71 71 73
28 30 37 50 46 43 47 45 48 48 45 52 47 48 51 53 53 50 48 44 42 40 41 44 45 46 44 41 37 39 38 36 39 38 32 37 33 25 26 31 49 66 74
26 31 37 44 46 40 42 47 47 43 39 39 39 42 49 52 51 48 44 42 39 38 40 44 47 51 47 39 37 36 40 36 34 37 33 39 35 28 30 31 32 49 70
27 29 37 43 42 39 42 42 36 34 39 36 36 41 45 47 48 50 45 44 41 41 43 42 43 44 46 44 37 34 37 40 41 38 38 32 39 35 28 33 38 40 50
26 28 34 40 38 37 36 37 34 35 37 37 35 36 42 46 48 49 44 43 43 47 45 43 42 42 42 40 38 36 33 32 33 36 38 37 32 36 39 33 31 35 40
26 28 33 42 30 32 37 36 38 38 36 30 32 31 38 40 43 47 45 45 48 49 48 47 44 43 42 42 40 37 33 33 33 32 33 35 38 34 33 45 29 28 28
27 30 33 40 28 33 36 39 31 31 32 31 32 35 41 41 47 46 44 44 45 44 42 42 47 48 50 49 45 41 39 33 31 34 33 33 34 39 38 40 41 38 39
38 36 34 34 41 33 30 30 27 28 30 32 34 40 42 41 40 39 37 36 38 36 38 42 44 46 49 48 49 48 46 43 38 35 36 35 33 34 38 42 41 36 40
36 38 36 34 33 30 30 34 39 40 35 36 35 36 36 40 40 38 39 37 36 38 40 42 46 47 47 47 49 48 52 45 39 38 38 39 36 34 33 39 44 41 35
35 34 34 36 38 39 35 34 34 33 32 32 35 37 38 41 36 34 35 40 43 43 40 42 43 44 46 46 46 48 54 50 41 36 36 40 39 38 36 35 43 42 40
39 39 38 38 37 39 44 38 41 39 39 41 40 39 40 36 32 34 35 41 48 47 46 45 40 51 52 50 47 42 42 47 56 60 46 43 41 40 41 41 38 42 40
41 44 40 38 39 42 42 45 45 46 46 44 42 40 38 33 36 35 36 40 49 48 50 54 54 58 57 53 50 52 56 60 54 73 75 58 45 48 49 52 45 38 41
41 42 41 38 37 43 47 47 47 51 53 43 40 40 36 40 37 37 40 50 53 53 55 55 56 61 73 73 71 71 80 82 81 81 80 67 61 59 64 56 61 48 47

GFSSE_925_rhum_012.txt.gz
RH
73 71 65 71 76 77 75 73 74 80 84 84 81 77 74 76 76 72 67 63 60 58 57 56 55 54 56 56 56 61 65 61 62 60 55 41 51 57 67 81 89 73 66
72 72 64 74 79 80 77 76 75 79 84 82 84 86 84 80 75 70 65 63 61 62 64 72 75 66 62 58 61 69 69 66 58 57 53 45 51 52 53 71 77 63 62
71 78 77 74 80 83 80 78 75 74 78 82 82 80 77 74 72 70 68 69 69 69 83 94 67 60 57 60 62 60 67 67 64 54 50 46 55 63 52 60 78 65 70
66 81 84 77 83 83 85 85 84 80 75 74 71 72 72 71 72 76 75 63 59 76 96 80 64 61 58 57 61 67 64 66 64 63 55 57 65 72 68 50 68 69 67
76 75 80 83 87 89 90 89 90 82 75 73 75 79 78 77 77 65 57 61 83 96 96 92 63 59 55 53 52 52 61 64 67 63 61 64 70 72 57 60 65 65 66
71 65 73 74 78 83 83 83 81 82 80 71 68 68 67 66 61 62 71 73 69 59 48 47 47 45 46 48 55 59 56 54 66 60 65 70 75 74 80 70 84 84 72
56 49 48 48 50 51 52 52 55 57 58 58 58 59 59 59 57 57 55 47 40 38 36 36 36 33 31 31 35 46 56 60 59 63 69 80 68 49 84 69 65 70 76
45 37 34 34 33 35 39 44 48 52 55 55 54 55 56 55 56 56 54 48 41 37 35 33 30 27 26 25 27 36 44 51 59 68 69 75 77 83 85 71 71 62 62
36 41 44 34 34 35 38 45 49 50 50 50 51 53 52 59 57 59 57 43 39 37 38 36 33 29 26 23 29 30 33 44 55 63 61 69 74 74 66 69 74 78 74
37 40 44 47 49 57 45 34 39 44 46 52 60 58 64 71 68 67 64 54 48 48 49 48 50 46 41 42 46 45 36 45 57 51 63 60 66 60 62 66 70 68 69
36 40 40 41 42 53 47 48 56 49 62 65 68 59 66 64 69 64 56 59 58 57 51 56 54 53 53 54 55 48 44 48 54 45 57 63 59 56 54 62 64 67 70
38 40 46 45 45 40 38 49 49 48 54 59 60 62 61 59 61 57 61 61 60 53 49 58 54 53 61 58 51 48 50 48 45 36 49 46 46 40 28 57 63 67 69
36 37 53 51 47 46 38 40 41 44 44 49 62 60 58 55 54 54 51 54 47 46 51 48 52 51 53 57 48 46 45 44 41 34 38 42 42 36 26 44 56 62 70
34 35 52 52 49 48 47 44 43 46 44 47 50 56 54 52 53 51 48 46 44 41 41 44 44 46 47 48 44 41 42 41 39 36 36 37 34 28 18 31 43 58 68
32 33 42 49 44 46 40 46 48 45 47 45 45 48 52 53 52 49 46 44 41 40 39 41 43 47 49 47 41 37 38 40 37 36 39 38 35 33 24 25 42 39 53
28 33 41 49 42 40 43 47 47 42 38 38 39 41 48 50 50 48 47 46 44 42 42 42 44 46 50 50 47 41 37 36 38 36 37 38 37 34 30 23 30 51 74
24 28 39 48 43 38 41 44 41 35 38 36 37 40 46 48 49 50 49 46 45 44 45 46 47 45 44 44 45 43 40 36 37 38 37 39 38 37 34 27 24 33 44
26 35 68 48 42 39 39 38 35 39 37 37 36 35 42 44 44 46 47 46 47 47 49 50 50 49 48 46 44 44 43 39 35 36 38 39 39 39 36 35 26 23 27
25 30 34 40 39 36 36 37 37 37 37 34 31 35 40 41 44 47 47 46 45 47 49 47 47 49 52 51 50 47 42 43 40 34 35 36 37 36 44 40 35 31 24
26 27 36 43 36 32 38 38 35 32 32 32 34 37 42 42 43 41 40 39 39 41 41 42 43 44 48 50 53 53 51 50 47 43 39 34 36 36 35 44 45 38 25
34 42 46 44 40 35 34 33 34 37 34 35 36 38 37 38 42 41 40 39 38 41 42 43 44 46 48 48 51 53 50 48 48 51 46 42 37 36 36 37 43 42 36
38 37 35 36 35 34 34 35 36 36 36 35 38 39 39 41 41 37 35 37 42 45 47 48 48 50 48 47 52 55 61 51 45 44 45 46 41 38 37 39 40 47 47
36 35 37 38 41 39 35 37 39 37 37 38 40 42 42 45 46 36 36 38 40 48 51 50 50 50 62 58 53 58 65 63 54 48 46 45 49 49 52 54 49 41 42
40 38 38 37 37 40 39 42 45 42 44 46 49 50 49 41 41 38 38 39 43 52 52 55 57 56 60 63 64 67 71 78 86 78 56 57 58 59 63 61 54 50 45
43 42 39 38 39 42 45 46 48 51 53 50 46 45 42 44 42 40 43 46 53 52 56 58 56 62 68 74 72 70 69 71 70 84 81 78 67 59 76 77 80 77 72
42 42 41 38 36 38 43 46 44 43 45 48 48 48 51 48 47 48 50 54 57 59 61 67 71 74 76 77 76 85 84 81 80 78 80 80 85 78 69 79 90 96 93